DO5RS-5 Weather Reports


time (UTC)temp
C
wind
direction
speed
KPH
gust
KPH
rain 1hr
cm
rain 24hr
cm
rain mn
cm
humidity
%
barometer
mb
20260505081904 18 0.0 0.0 0.00 0.00 0.00 78 1012.3
20260505080909 17 0.0 0.0 0.00 0.00 0.00 80 1012.4
20260505074904 17 0.0 0.0 0.00 0.00 0.00 83 1012.6
20260505073905 16 0.0 0.0 0.00 0.00 0.00 82 1012.7
20260505072905 16 0.0 0.0 0.00 0.00 0.00 81 1012.9
20260505071904 16 0.0 0.0 0.00 0.00 0.00 85 1013.0
20260505070904 16 0.0 0.0 0.00 0.00 0.00 84 1013.1
20260505065905 16 0.0 0.0 0.00 0.00 0.00 85 1013.0
20260505064905 16 0.0 0.0 0.00 0.00 0.00 84 1013.1
20260505063906 15 0.0 0.0 0.00 0.00 0.00 85 1013.0
20260505062906 15 0.0 0.0 0.00 0.00 0.00 85 1013.0
20260505061905 15 0.0 0.0 0.00 0.00 0.00 85 1013.0
20260505060905 15 0.0 0.0 0.00 0.00 0.00 86 1013.0
20260505055911 15 0.0 0.0 0.00 0.00 0.00 86 1013.0
20260505051906 15 0.0 0.0 0.00 0.00 0.00 87 1013.2
20260505050910 15 0.0 0.0 0.00 0.00 0.00 86 1013.2
20260505040909 15 0.0 0.0 0.00 0.00 0.00 87 1013.5
20260505034905 15 0.0 0.0 0.00 0.00 0.00 86 1013.6
20260505033905 15 0.0 0.0 0.00 0.00 0.00 87 1013.6
20260505032905 15 0.0 0.0 0.00 0.00 0.00 86 1013.5
20260505031909 15 0.0 0.0 0.00 0.00 0.00 87 1013.6
20260505025906 15 0.0 0.0 0.00 0.00 0.00 86 1014.0
20260505024906 15 0.0 0.0 0.00 0.00 0.00 87 1014.1
20260505023909 15 0.0 0.0 0.00 0.00 0.00 86 1014.1
20260505021904 15 0.0 0.0 0.00 0.00 0.00 87 1014.3
20260505020905 15 0.0 0.0 0.00 0.00 0.00 86 1014.3
20260505015905 15 0.0 0.0 0.00 0.00 0.00 86 1014.5
20260505014910 15 0.0 0.0 0.00 0.00 0.00 86 1014.5
20260505012905 15 0.0 0.0 0.00 0.00 0.00 85 1014.5
20260505011904 15 0.0 0.0 0.00 0.00 0.00 85 1014.5
20260505010904 15 0.0 0.0 0.00 0.00 0.00 86 1014.5
20260505005905 15 0.0 0.0 0.00 0.00 0.00 85 1014.6
20260505004904 15 0.0 0.0 0.00 0.00 0.00 85 1014.6
20260505003909 15 0.0 0.0 0.00 0.00 0.00 84 1014.7
20260505001905 15 0.0 0.0 0.00 0.00 0.00 84 1014.9
20260505000904 15 0.0 0.0 0.00 0.00 0.00 85 1015.1
20260504235904 15 0.0 0.0 0.00 0.00 0.00 85 1015.1
20260504234909 15 0.0 0.0 0.00 0.00 0.00 85 1015.2
20260504232904 15 0.0 0.0 0.00 0.00 0.00 84 1015.4
20260504231908 15 0.0 0.0 0.00 0.00 0.00 84 1015.7
20260504225905 16 0.0 0.0 0.00 0.00 0.00 83 1016.1
20260504224905 16 0.0 0.0 0.00 0.00 0.00 83 1016.3
20260504223906 16 0.0 0.0 0.00 0.00 0.00 83 1016.5
20260504222906 16 0.0 0.0 0.00 0.00 0.00 82 1016.5
20260504221906 16 0.0 0.0 0.00 0.00 0.00 81 1016.5
20260504220905 16 0.0 0.0 0.00 0.00 0.00 80 1016.3
20260504215905 16 0.0 0.0 0.00 0.00 0.00 81 1016.3
20260504214905 16 0.0 0.0 0.00 0.00 0.00 80 1016.3
20260504213909 16 0.0 0.0 0.00 0.00 0.00 81 1016.4
20260504211908 16 0.0 0.0 0.00 0.00 0.00 80 1016.3
20260504210905 16 0.0 0.0 0.00 0.00 0.00 79 1016.4
20260504205904 16 0.0 0.0 0.00 0.00 0.00 80 1016.4
20260504204904 16 0.0 0.0 0.00 0.00 0.00 80 1016.4
20260504203908 16 0.0 0.0 0.00 0.00 0.00 80 1016.4
20260504201905 16 0.0 0.0 0.00 0.00 0.00 79 1016.4
20260504200909 16 0.0 0.0 0.00 0.00 0.00 78 1016.2
20260504194906 16 0.0 0.0 0.00 0.00 0.00 78 1016.1
20260504193905 16 0.0 0.0 0.00 0.00 0.00 77 1016.1
20260504192905 17 0.0 0.0 0.00 0.00 0.00 78 1015.9
20260504191905 17 0.0 0.0 0.00 0.00 0.00 78 1015.9
20260504190904 17 0.0 0.0 0.00 0.00 0.00 77 1015.8
20260504185905 17 0.0 0.0 0.00 0.00 0.00 79 1015.9
20260504184905 17 0.0 0.0 0.00 0.00 0.00 77 1015.7
20260504183905 17 0.0 0.0 0.00 0.00 0.00 74 1015.4
20260504182907 17 0.0 0.0 0.00 0.00 0.00 74 1015.4
20260504181912 17 0.0 0.0 0.00 0.00 0.00 73 1015.5
20260504174905 17 0.0 0.0 0.00 0.00 0.00 73 1015.5
20260504173905 17 0.0 0.0 0.00 0.00 0.00 75 1015.7
20260504172909 18 0.0 0.0 0.00 0.00 0.00 73 1015.6
20260504150904 18 0.0 0.0 0.00 0.00 0.00 73 1015.8
20260504140908 22 0.0 0.0 0.00 0.00 0.00 47 1014.7